Regional Weather Roundup
Issued by NWS

Home | Current Version | Previous Version | Graphics & Text | Print | Product List | Glossary On
Versions: 1 2 3 4 5 6 7 8 9 10 11 12 13 14 15 16 17 18 19 20 21 22 23 24 25 26 27 28 29 30 31 32 33 34 35 36 37 38 39 40 41 42 43 44 45 46 47 48 49 50
000
ASUS43 KLOT 291258
RWRIL

ILLINOIS REGIONAL WEATHER ROUNDUP
NATIONAL WEATHER SERVICE CHICAGO/ROMEOVILLE IL
800 AM CDT TUE JUL 29 2014

NOTE: "FAIR" INDICATES FEW OR NO CLOUDS BELOW 12,000 FEET WITH NO
SIGNIFICANT WEATHER AND/OR OBSTRUCTIONS TO VISIBILITY.

* THESE STATIONS ARE NOT UNDER NWS QUALITY CONTROL. THEY ALSO MAY NOT
  REPORT WEATHER SUCH AS PRECIPITATION OR FOG.

ILZ001-002-007-009-015-016-024-291400-
NORTHWEST ILLINOIS

CITY           SKY/WX    TMP DP  RH WIND       PRES   REMARKS
MOLINE         SUNNY     62  57  83 W7        30.12R
$$

ILZ003-004-008-010-011-017-018-291400-
NORTH CENTRAL ILLINOIS

CITY           SKY/WX    TMP DP  RH WIND       PRES   REMARKS
ROCKFORD       NOT AVBL
$$

ILZ005-006-012>014-019>023-291400-
NORTHEAST ILLINOIS

CITY           SKY/WX    TMP DP  RH WIND       PRES   REMARKS
CHICAGO-OHARE  MOSUNNY   65  52  62 W8        30.04S
CHICAGO-MIDWAY MOSUNNY   65  56  72 W8        30.05S
AURORA         SUNNY     61  54  77 W9        30.08R
WAUKEGAN       MOSUNNY   64  54  69 W8        30.03S
DUPAGE AIRPORT SUNNY     64  54  69 W6        30.06R
WHEELING       SUNNY     66  54  65 NW6       30.06R
NORTHERLY ISL    N/A     65  54  67 W7          N/A
$$

LMZ740>746-291400-
SOUTHERN LAKE MICHIGAN

STATION/POSITION SKY/WX   TEMP    WIND        PRES    VSBY  WAVE
                          AIR SEA DIR/SP/G                  HT/PER
                          (F)     (DEG/KT/KT) (MB)    (MI)  (FT/S)
SOUTHERN BUOY              61 60  270/ 10/ 12 1016.2R         1/ 5
WAUKEGAN HARBOR            64     300/  9/ 13   N/A
HARRISON CRIB              63     270/  8/ 10   N/A
BURNHAM HARBOR             64     250/  6/  7   N/A
CALUMET HARBOR             62     230/  5/  6 1016.2R
MICHIGAN CITY              58     190/  8/ 10   N/A
MICHIGAN CITY 6N           63 67  220/ 10/ 14   N/A           2/ 5
ST. JOSEPH                 65 66  220/ 12/ 14   N/A           2/ 4
$$

ILZ025>027-034>036-040-047-049-050-058-095>099-291400-
WEST-CENTRAL ILLINOIS

CITY           SKY/WX    TMP DP  RH WIND       PRES   REMARKS
$$

ILZ028>032-037-038-041>044-048-051>054-059>061-291400-
CENTRAL ILLINOIS

CITY           SKY/WX    TMP DP  RH WIND       PRES   REMARKS
PEORIA         NOT AVBL
SPRINGFIELD    SUNNY     61  56  83 W3        30.13S
TAYLORVILLE    NOT AVBL
$$

ILZ033-039-045-046-055>057-062-063-291400-
EAST-CENTRAL ILLINOIS

CITY           SKY/WX    TMP DP  RH WIND       PRES   REMARKS
CHAMPAIGN      SUNNY     60  56  86 W10       30.11R
MATTOON        SUNNY     60  54  80 NW12      30.10S
$$

ILZ079-100>102-291400-
SOUTHWEST ILLINOIS

CITY           SKY/WX    TMP DP  RH WIND       PRES   REMARKS
ALTON          SUNNY     61  59  94 W3        30.15R
CAHOKIA*       SUNNY     63  57  81 SW3       30.15R
$$

ILZ064>066-069>071-074>076-080>082-084>086-088>090-092>094-291400-
SOUTH-CENTRAL ILLINOIS

CITY           SKY/WX    TMP DP  RH WIND       PRES   REMARKS
CARBONDALE     SUNNY     60  55  83 W3        30.14R
MARION         SUNNY     61  57  88 W6        30.15R
$$

ILZ067-068-072-073-078-083-087-091-291400-
SOUTHEAST ILLINOIS

CITY           SKY/WX    TMP DP  RH WIND       PRES   REMARKS
LAWRENCEVILLE  SUNNY     62  54  74 NW10      30.11R
$$

ABBREVIATIONS USED IN REMARKS
   TC - TEMPERATURE IN CELSIUS
  WCI - WIND CHILL INDEX
   HX - HEAT INDEX
  VSB - VISIBILITY
$$




USA.gov is the U.S. government's official web portal to all federal, state and local government web resources and services.